Content
SEND FEEDBACK

Daily
Averages
Monthly
Summary
United States of America

BETHEL, OKLAHOMA


Home > North America > United States > Oklahoma
Elevation: 1300 feet     Latitude: 34 15N     Longitude: 094 46W

WEATHER
 
SELECT A DAY
Number of Records: 158,884;   Date Range: 7/12/01 - 9/29/14
 
SHARE

PRINT THIS DATA

[ ← Previous Day ]
WEATHER ALMANAC - JANUARY 31, 2013
[ Next Day → ]
[ °C ]   °F
Weather ElementAverageHighLow
Temperature42.5 °F63 °F (2:53 pm)23 °F (5:53 am)
Dewpoint24.9 °F30.9 °F (9:53 am)21 °F (5:53 am)
Humidity57.7 %96 % (2:53 am)20 % (3:53 pm)
Barometer30.16 in30.32 in (11:53 pm)30.08 in (3:53 pm)
Wind Speed5 mph15 mph (2:53 pm)
Wind Gust23 mph (2:53 pm)
Weather ElementAverage
Visibility9 mi
Wind DirectionENE (65.7 °)

Weather ElementTotal
Precipitation---
Heating Degree Days22 (Base 65)
Averaged from 23 records on January 31, 2013
WEATHER CONDITIONS BREAKOUT
WIND DIRECTION BREAKOUT
WEATHER BY HOUR - JANUARY 31, 2013
[ °C ]   °F
Local TimeTemperatureDewpointHumidityBarometerVisibilityWind DirectionWind SpeedGust SpeedPrecipitationEventsConditions
1:53 AM26.1 °F24.1 °F92 %30.10 in5.0 miCalmClear
2:53 AM25.0 °F24.1 °F96 %30.10 in6.0 miCalmClear
3:53 AM25.0 °F23.0 °F92 %30.11 in7.0 miCalmClear
4:53 AM24.1 °F21.9 °F91 %30.12 in8.0 miCalmClear
5:53 AM23.0 °F21.0 °F92 %30.14 in8.0 miCalmClear
6:53 AM23.0 °F21.0 °F92 %30.15 in8.0 miCalmClear
7:53 AM25.0 °F21.9 °F88 %30.17 in7.0 miCalmClear
8:53 AM32.0 °F30.0 °F92 %30.19 in9.0 miCalmClear
9:53 AM41.0 °F30.9 °F67 %30.19 in10.0 miCalmClear
10:53 AM46.0 °F30.0 °F54 %30.19 in10.0 miVariable4.6 mphClear
11:53 AM52.0 °F28.0 °F40 %30.18 in10.0 miVariable5.8 mphClear
12:53 PM57.0 °F28.9 °F34 %30.14 in10.0 miSW (230°)8.1 mphClear
1:53 PM61.0 °F24.1 °F24 %30.11 in10.0 miSW (230°)13.8 mphClear
2:53 PM63.0 °F21.9 °F21 %30.09 in10.0 miSW (230°)15.0 mph23.0 mphClear
3:53 PM63.0 °F21.0 °F20 %30.08 in10.0 miWSW (240°)13.8 mphClear
4:53 PM62.1 °F21.0 °F21 %30.09 in10.0 miWSW (240°)12.7 mphClear
5:53 PM57.0 °F23.0 °F27 %30.12 in10.0 miSW (220°)4.6 mphClear
6:53 PM48.0 °F30.0 °F50 %30.15 in10.0 miCalmClear
7:53 PM51.1 °F27.0 °F39 %30.20 in10.0 miNorth (10°)9.2 mphClear
8:53 PM48.0 °F28.0 °F46 %30.25 in10.0 miNNE (20°)6.9 mphClear
9:53 PM44.1 °F28.0 °F53 %30.28 in10.0 miNNE (30°)6.9 mphClear
10:53 PM42.1 °F23.0 °F47 %30.31 in10.0 miNNE (20°)9.2 mphClear
11:53 PM39.9 °F21.9 °F49 %30.32 in10.0 miNE (40°)3.5 mphClear
Hourly data recorded from KDEQ, located miles away from Bethel, Oklahoma







STORIES FROM OUR PARTNERS